WetterOnline ( https://www.wetteronline.de )

Wetter aktuell Karlsruhe

Aktuelles Wetter: Rheinstetten (116m)

6-stündlich | Neueste Meldungen
Ortszeit Temperatur Wetter
Di, 18.06. 2:00 13.8° C leicht bewölkt
Mo, 17.06. 20:00 21.7° C bedeckt
Mo, 17.06. 14:00 22.3° C bedeckt
Mo, 17.06. 8:00 16.3° C leichter Regen
Mo, 17.06. 2:00 16.0° C Sprühregen
So, 16.06. 20:00 19.4° C bedeckt
So, 16.06. 14:00 20.3° C wolkig
So, 16.06. 8:00 15.8° C wolkig
Ortszeit Temperatur Wetter
Di, 18.06. 4:00 13.1° C bewölkt
Di, 18.06. 3:50 13.1° C bewölkt
Di, 18.06. 3:40 13.1° C bedeckt
Di, 18.06. 3:30 12.9° C bewölkt
Di, 18.06. 3:20 12.9° C bewölkt
Di, 18.06. 3:10 12.9° C bedeckt
Di, 18.06. 3:00 12.9° C wolkig
Di, 18.06. 2:30 13.3° C wolkig
Di, 18.06. 2:00 13.8° C leicht bewölkt
Di, 18.06. 1:30 13.7° C wolkig
Di, 18.06. 1:00 14.4° C wolkig
Ortszeit Relative Feuchte Sichtweite
Di, 18.06. 2:00 99% 26 km
Mo, 17.06. 20:00 68% >70 km
Mo, 17.06. 14:00 61% 35 km
Mo, 17.06. 8:00 96% 17 km
Mo, 17.06. 2:00 92% 60 km
So, 16.06. 20:00 63% 55 km
So, 16.06. 14:00 52% 55 km
So, 16.06. 8:00 75% 60 km
Ortszeit Relative Feuchte Sichtweite
Di, 18.06. 4:00 98% 29 km
Di, 18.06. 3:50 98% -
Di, 18.06. 3:40 99% -
Di, 18.06. 3:30 99% 29 km
Di, 18.06. 3:20 99% -
Di, 18.06. 3:10 98% -
Di, 18.06. 3:00 99% 26 km
Di, 18.06. 2:30 98% 25 km
Di, 18.06. 2:00 99% 26 km
Di, 18.06. 1:30 97% 19 km
Di, 18.06. 1:00 96% 45 km
Ortszeit Niederschlagsmenge Niederschlagsart
Di, 18.06. 2:00 0.0 l/m2 in 6 Std. -
Mo, 17.06. 20:00 0.4 l/m2 in 12 Std. Regen
Mo, 17.06. 14:00 0.4 l/m2 in 6 Std. Regen
Mo, 17.06. 8:00 3 l/m2 in 12 Std. Regen
Mo, 17.06. 2:00 0.8 l/m2 in 6 Std. Regen
So, 16.06. 20:00 0.0 l/m2 in 12 Std. -
So, 16.06. 14:00 0.0 l/m2 in 6 Std. -
So, 16.06. 8:00 0.1 l/m2 in 12 Std. Regen
Ortszeit Niederschlagsmenge Niederschlagsart
Di, 18.06. 4:00 0.0 l/m2 in 1 Std. -
Di, 18.06. 3:50 keine Meldung -
Di, 18.06. 3:40 keine Meldung -
Di, 18.06. 3:30 0.0 l/m2 in 30 Min -
Di, 18.06. 3:20 keine Meldung -
Di, 18.06. 3:10 keine Meldung -
Di, 18.06. 3:00 0.0 l/m2 in 1 Std. -
Di, 18.06. 2:30 0.0 l/m2 in 30 Min -
Di, 18.06. 2:00 0.0 l/m2 in 1 Std. -
Di, 18.06. 1:30 0.0 l/m2 in 30 Min -
Di, 18.06. 1:00 0.0 l/m2 in 1 Std. -
Ortszeit Stärke Spitze Richtung
km/h Bft. km/h Grad Sektor
Di, 18.06. 2:00 4 1 18 220° SW
Mo, 17.06. 20:00 11 2 40 210° SW
Mo, 17.06. 14:00 20 4 35 220° SW
Mo, 17.06. 8:00 9 2 15 210° SW
Mo, 17.06. 2:00 4 1 29 180° S
So, 16.06. 20:00 7 2 36 220° SW
So, 16.06. 14:00 22 4 37 230° SW
So, 16.06. 8:00 19 3 28 220° SW
Ortszeit Stärke Spitze Richtung
km/h Bft. km/h Grad Sektor
Di, 18.06. 4:00 2 1 6 60° NO
Di, 18.06. 3:50 2 1 - 60° NO
Di, 18.06. 3:40 4 1 - 210° SW
Di, 18.06. 3:30 0 0 4 - -
Di, 18.06. 3:20 0 0 - 240° SW
Di, 18.06. 3:10 2 1 - 90° O
Di, 18.06. 3:00 2 1 4 80° O
Di, 18.06. 2:30 2 1 4 40° NO
Di, 18.06. 2:00 4 1 4 220° SW
Di, 18.06. 1:30 4 1 4 160° S
Di, 18.06. 1:00 4 1 7 110° O
Ortszeit Untergrenze Bedeckung Gattung
total tief tief mittel hoch
Di, 18.06. 2:00 10500 m 4/8 0/8 - - -
Mo, 17.06. 20:00 4200 m 8/8 8/8 - - -
Mo, 17.06. 14:00 3000 m 8/8 8/8 - - -
Mo, 17.06. 8:00 780 m 8/8 8/8 - - -
Mo, 17.06. 2:00 1170 m 8/8 8/8 - - -
So, 16.06. 20:00 1800 m 8/8 8/8 - - -
So, 16.06. 14:00 1470 m 8/8 2/8 - - -
So, 16.06. 8:00 6000 m 8/8 1/8 - - -
Ortszeit Bedeckungsgrad in Achtel und Wolkenuntergrenze
Di, 18.06. 4:00 7(3600m) 8(8700m) 8(10500m)
Di, 18.06. 3:50 7(3600m) 8(8700m) 8(10500m)
Di, 18.06. 3:40 8
Di, 18.06. 3:30 4(3900m) 8(9000m)
Di, 18.06. 3:20 4(3900m) 8(9000m)
Di, 18.06. 3:10 8
Di, 18.06. 3:00 7(9000m) 8(10500m) 8(10500m)
Di, 18.06. 2:30 8(10500m)
Di, 18.06. 2:00 4(10500m)
Di, 18.06. 1:30 2(2100m) 6(9000m) 7(10500m)
Di, 18.06. 1:00 1(3600m) 8(10500m)
Ortszeit Luftdruck NN (hPa) Tendenz (hPa in 3 Std.)
Di, 18.06. 2:00 1016 + 0,4
Mo, 17.06. 20:00 1014 - 0,1
Mo, 17.06. 14:00 1015 + 0,4
Mo, 17.06. 8:00 1014 + 1,4
Mo, 17.06. 2:00 1012 + 0,2
So, 16.06. 20:00 1011 + 0,8
So, 16.06. 14:00 1010 - 0,8
So, 16.06. 8:00 1012 + 0,3
Ortszeit Luftdruck NN (hPa) Tendenz (hPa in 3 Std.)
Di, 18.06. 4:00 1015 - 0,8
Di, 18.06. 3:50 1015 keine Meldung
Di, 18.06. 3:40 1015 keine Meldung
Di, 18.06. 3:30 1015 - 0,4
Di, 18.06. 3:20 1015 keine Meldung
Di, 18.06. 3:10 1015 keine Meldung
Di, 18.06. 3:00 1016 - 0,4
Di, 18.06. 2:30 1016 0,0
Di, 18.06. 2:00 1016 + 0,4
Di, 18.06. 1:30 1016 + 0,7
Di, 18.06. 1:00 1016 + 0,7
Ortszeit Schneehöhe (cm)
Di, 18.06. 2:00 0
Mo, 17.06. 20:00 0
Mo, 17.06. 14:00 0
Mo, 17.06. 8:00 0
Mo, 17.06. 2:00 0
So, 16.06. 20:00 0
So, 16.06. 14:00 0
So, 16.06. 8:00 0
Ortszeit Schneehöhe (cm)
Di, 18.06. 4:00 0
Di, 18.06. 3:50 0
Di, 18.06. 3:40 -
Di, 18.06. 3:30 0
Di, 18.06. 3:20 0
Di, 18.06. 3:10 -
Di, 18.06. 3:00 0
Di, 18.06. 2:30 0
Di, 18.06. 2:00 0
Di, 18.06. 1:30 0
Di, 18.06. 1:00 0
Link zu dieser Seite / Seite empfehlen

Das Wetter in ...